F8KGK-5 Weather Reports


time (UTC)temp
C
wind
direction
speed
KPH
gust
KPH
rain 1hr
cm
rain 24hr
cm
rain mn
cm
humidity
%
barometer
mb
20260507114103 23 26 4.8 12.9 0.00 0.00 0.00 41 1009.1
20260507111105 17 52 1.6 0.0 0.00 0.00 0.00 51 1009.4
20260507104105 17 347 4.8 6.4 0.00 0.00 0.00 51 1009.5
20260507101103 21 331 3.2 11.3 0.00 0.00 0.00 49 1009.5
20260507094103 20 351 8.0 9.7 0.00 0.00 0.00 50 1009.5
20260507091104 19 358 1.6 3.2 0.00 0.00 0.00 54 1009.4
20260507084104 16 220 0.0 0.0 0.00 0.00 0.00 60 1009.4
20260507081103 15 333 0.0 0.0 0.00 0.00 0.00 65 1009.4
20260507074102 13 238 0.0 0.0 0.00 0.00 0.00 70 1009.3
20260507071103 11 187 0.0 0.0 0.00 0.00 0.00 76 1009.0
20260507064103 11 142 0.0 0.0 0.00 0.00 0.00 79 1008.9
20260507063735 10 78 0.0 0.0 0.00 0.00 0.00 79 1008.8
20260507060736 10 53 0.0 0.0 0.00 0.00 0.00 81 1008.7
20260507053737 9 22 0.0 0.0 0.00 0.00 0.00 82 1008.5
20260507050736 9 24 0.0 0.0 0.00 0.00 0.00 82 1008.3
20260507043736 8 7 0.0 0.0 0.00 0.00 0.00 82 1008.0
20260507040737 8 22 0.0 0.0 0.00 0.00 0.00 81 1007.9
20260507033735 8 3 0.0 0.0 0.00 0.00 0.00 81 1007.9
20260507030736 8 332 0.0 0.0 0.00 0.00 0.00 80 1008.0
20260507025708 8 342 0.0 0.0 0.00 0.00 0.00 80 1007.8
20260507022708 8 333 0.0 0.0 0.00 0.00 0.00 79 1007.9
20260507015707 9 321 0.0 0.0 0.00 0.00 0.00 79 1007.8
20260507012708 9 302 0.0 0.0 0.00 0.00 0.00 78 1007.8
20260507005708 9 305 0.0 0.0 0.00 0.00 0.00 78 1007.7
20260507002709 9 354 0.0 0.0 0.00 0.00 0.00 77 1007.7
20260506235709 9 323 0.0 0.0 0.00 0.00 0.00 76 1007.7
20260506232708 9 288 0.0 3.2 0.00 0.00 0.00 76 1007.6
20260506225707 10 318 0.0 0.0 0.00 0.00 0.00 75 1007.7
20260506222707 10 320 0.0 0.0 0.00 0.00 0.00 74 1007.7
20260506215708 10 286 0.0 1.6 0.00 0.00 0.00 74 1007.4
20260506212708 10 6 1.6 3.2 0.00 0.00 0.00 73 1007.2
20260506205707 10 345 1.6 8.0 0.00 0.00 0.00 72 1007.1
20260506202707 10 355 0.0 3.2 0.00 0.00 0.00 70 1007.0
20260506195708 10 340 4.8 6.4 0.00 0.00 0.00 69 1006.7
20260506192707 11 328 1.6 6.4 0.00 0.00 0.00 67 1006.3
20260506191644 11 320 1.6 4.8 0.00 0.00 0.00 66 1006.3
20260506184645 11 319 4.8 6.4 0.00 0.00 0.00 64 1006.0
20260506181645 12 348 14.5 20.9 0.00 0.00 0.00 61 1005.9
20260506174645 12 303 8.0 12.9 0.00 0.00 0.00 60 1005.5
20260506171645 13 338 14.5 19.3 0.00 0.00 0.00 55 1005.4
20260506164644 16 277 4.8 3.2 0.00 0.00 0.00 50 1005.4
20260506161645 15 0 9.7 12.9 0.00 0.00 0.00 49 1005.4
20260506154644 16 352 4.8 12.9 0.00 0.00 0.00 48 1005.3
20260506151643 17 303 8.0 14.5 0.00 0.00 0.00 44 1005.3
20260506151246 17 298 6.4 8.0 0.00 0.00 0.00 44 1005.4
20260506134051 21 335 6.4 11.3 0.00 0.00 0.00 42 1005.3
20260506131052 22 288 16.1 17.7 0.00 0.00 0.00 39 1005.2
20260506124051 20 349 17.7 25.7 0.00 0.00 0.00 43 1005.1
20260506121052 21 346 19.3 20.9 0.00 0.00 0.00 41 1005.0